Probability
87 87 84 87 81 90 94 90 87 90 84 84 65 52 52 65 42 32 45 87 84 71 58 48 55 58 39 45 48 39 35 42 48 39 35 35 19 19 23 16 16 13 10
94 90 84 87 90 87 87 90 87 90 84 84 81 77 65 42 61 61 42 74 87 74 68 45 42 48 48 45 39 32 32 42 45 48 42 32 39 23 23 19 16 19 13
87 90 94 94 94 87 87 87 81 84 81 77 77 77 77 68 61 68 45 48 52 74 77 65 55 48 55 52 45 39 35 35 52 42 45 35 42 35 35 35 29 26 29
87 94 94 94 90 87 87 87 84 77 81 77 81 77 81 81 71 68 65 71 61 32 74 77 74 65 58 52 48 52 52 55 61 48 45 52 48 39 42 35 32 32 29
84 90 94 90 81 84 84 61 87 74 84 81 68 68 77 81 77 48 58 58 74 61 42 55 87 84 61 52 45 58 58 52 61 61 45 42 32 52 48 48 42 32 35
84 90 87 94 74 84 84 81 71 77 81 77 32 35 65 74 77 71 58 55 68 61 48 45 42 52 81 77 74 65 68 61 65 58 48 52 48 52 55 45 35 32 32
84 87 90 90 90 94 87 74 65 61 77 77 52 45 71 58 58 74 81 68 39 42 52 55 42 45 29 68 68 74 71 65 65 65 68 71 61 58 55 48 32 32 29
81 52 90 90 90 90 87 71 71 77 74 68 68 39 32 42 71 29 68 71 45 45 45 39 74 81 52 29 6 65 71 61 58 61 68 65 68 61 52 39 35 29 29
87 81 87 90 87 87 87 81 77 71 65 77 71 55 16 16 35 61 58 45 68 71 52 45 61 65 58 55 39 16 74 74 71 52 65 61 55 42 35 32 29 23 29
84 84 74 84 87 84 84 81 71 81 81 61 77 58 65 48 35 26 39 39 52 61 48 29 42 48 58 55 52 32 32 61 71 61 61 55 48 42 35 29 26 26 26
87 87 87 81 84 84 81 74 77 81 84 74 71 68 61 65 48 32 13 16 35 48 52 58 48 52 52 55 48 35 23 19 39 52 55 55 48 45 32 23 26 26 26
84 84 90 87 87 90 87 87 77 71 77 71 68 58 58 48 42 32 16 16 19 26 39 45 48 45 55 48 35 29 16 3 3 6 19 35 45 42 39 29 23 19 19
84 90 84 84 87 84 87 84 81 77 68 68 68 71 61 52 48 45 32 13 19 23 26 45 48 55 35 32 35 23 16 3 0 0 3 3 10 23 19 23 26 23 23
74 81 90 84 84 74 68 84 74 74 68 68 48 65 65 65 61 61 42 19 10 13 23 23 39 29 23 29 26 0 10 0 0 0 0 0 0 0 3 6 16 13 10
68 71 65 71 71 68 74 74 74 68 65 61 55 58 61 52 58 61 55 58 16 13 13 16 16 19 16 13 0 3 10 3 0 0 0 0 0 0 0 0 0 0 0
71 74 68 65 68 71 61 71 65 61 61 68 68 58 58 52 39 48 42 42 32 19 16 13 10 23 16 10 3 6 10 0 0 0 0 0 0 0 0 0 0 0 0
65 68 65 52 58 55 52 52 55 48 48 42 45 35 39 39 39 32 26 29 26 23 13 13 13 19 19 16 3 16 16 6 3 0 0 0 0 0 0 0 0 0 0
61 58 55 48 52 45 42 42 35 39 23 23 32 29 23 19 29 29 32 26 26 26 13 10 13 10 19 13 16 13 6 0 0 0 0 0 0 0 0 0 0 0 0
65 55 55 52 42 42 39 35 29 32 32 26 23 13 23 23 23 26 26 23 23 6 19 10 6 13 6 6 6 6 3 6 6 0 0 0 0 0 0 0 0 0 0
52 45 45 42 39 35 29 19 23 23 26 29 26 19 19 19 16 16 13 19 13 13 13 10 10 10 10 6 6 6 6 6 0 0 0 0 0 0 0 0 0 0 0
35 39 39 32 32 26 16 13 16 19 26 26 19 16 16 16 10 6 6 13 13 10 6 6 6 3 6 6 6 6 0 0 6 0 0 0 0 0 0 0 0 0 0
35 32 32 29 26 13 10 3 6 16 23 23 19 13 13 10 6 3 3 3 3 6 6 6 6 3 3 6 6 3 3 0 0 3 0 0 0 0 0 0 0 0 0
32 32 23 23 19 10 3 0 0 19 23 19 16 13 6 10 6 6 3 3 0 0 0 3 3 3 3 3 6 0 3 3 3 3 0 0 0 0 0 0 0 0 0
26 23 23 23 19 3 3 0 0 6 13 16 10 6 10 6 3 3 3 3 0 3 3 0 0 3 0 3 3 3 3 3 3 0 0 0 0 0 0 0 0 0 0
26 26 19 19 16 6 3 0 0 0 10 10 6 6 6 3 3 3 3 3 3 3 0 0 0 0 0 0 0 0 3 0 0 0 0 0 0 0 0 0 0 0 0
19 19 19 19 19 13 3 0 0 3 6 13 6 6 3 3 3 3 3 3 3 3 3 0 0 0 0 0 0 0 0 0 0 0 0 0 0 0 0 0 0 0 0
Height
5902 5902 5903 5904 5904 5905 5905 5906 5906 5906 5907 5907 5907 5907 5907 5907 5907 5908 5908 5908 5908 5909 5909 5909 5909 5910 5910 5910 5911 5911 5911 5912 5912 5912 5912 5912 5912 5912 5912 5912 5912 5912 5912
5901 5902 5903 5904 5904 5905 5905 5906 5906 5907 5907 5907 5908 5908 5908 5907 5908 5908 5908 5908 5908 5909 5909 5909 5909 5910 5910 5910 5910 5911 5911 5911 5911 5911 5911 5911 5911 5911 5911 5911 5911 5911 5911
5901 5902 5903 5904 5904 5905 5906 5906 5907 5907 5907 5908 5908 5908 5908 5908 5908 5908 5908 5908 5908 5909 5909 5909 5909 5909 5910 5910 5910 5910 5910 5910 5910 5910 5910 5910 5910 5910 5910 5909 5910 5910 5909
5901 5902 5903 5904 5904 5905 5906 5906 5907 5907 5908 5908 5908 5909 5909 5909 5909 5909 5909 5909 5908 5909 5909 5909 5909 5909 5909 5909 5909 5909 5909 5909 5909 5909 5909 5909 5908 5908 5908 5908 5908 5908 5908
5900 5902 5903 5903 5904 5905 5906 5906 5906 5907 5907 5908 5908 5909 5909 5909 5909 5909 5909 5908 5908 5908 5908 5909 5909 5909 5908 5908 5908 5908 5908 5908 5908 5908 5907 5907 5907 5907 5906 5906 5906 5906 5905
5900 5901 5902 5903 5903 5904 5905 5906 5906 5907 5907 5908 5908 5908 5909 5909 5909 5909 5908 5908 5908 5908 5908 5908 5908 5908 5908 5907 5907 5907 5907 5907 5906 5906 5906 5906 5905 5905 5905 5904 5904 5903 5903
5899 5900 5901 5902 5903 5904 5904 5905 5906 5906 5907 5907 5908 5908 5908 5908 5908 5908 5908 5908 5908 5907 5907 5907 5907 5907 5907 5906 5906 5906 5905 5905 5905 5904 5904 5903 5903 5903 5902 5902 5901 5901 5900
5898 5899 5900 5901 5902 5903 5904 5904 5905 5905 5906 5906 5907 5907 5907 5908 5907 5907 5907 5907 5907 5906 5906 5906 5906 5906 5906 5905 5905 5904 5904 5903 5903 5902 5902 5901 5900 5900 5899 5899 5898 5897 5897
5897 5898 5899 5900 5901 5902 5903 5903 5904 5904 5904 5905 5905 5906 5906 5906 5906 5906 5906 5905 5905 5905 5905 5905 5904 5904 5903 5904 5903 5902 5901 5901 5900 5900 5899 5898 5897 5897 5896 5895 5894 5894 5893
5896 5897 5898 5899 5900 5901 5901 5902 5902 5902 5903 5903 5904 5904 5904 5904 5904 5904 5904 5904 5904 5903 5903 5903 5902 5902 5901 5901 5900 5900 5899 5898 5897 5896 5896 5895 5894 5893 5892 5891 5890 5889 5888
5894 5895 5896 5897 5898 5899 5899 5900 5900 5901 5901 5901 5902 5902 5902 5902 5902 5902 5902 5902 5902 5901 5900 5900 5900 5899 5899 5898 5897 5896 5895 5894 5894 5893 5892 5891 5890 5889 5888 5887 5886 5885 5884
5893 5893 5894 5895 5896 5897 5898 5898 5898 5898 5899 5899 5899 5899 5900 5900 5900 5899 5899 5899 5899 5898 5897 5897 5896 5895 5895 5894 5894 5893 5892 5891 5889 5888 5887 5886 5885 5884 5883 5882 5881 5880 5879
5891 5892 5893 5893 5894 5895 5895 5896 5896 5896 5896 5897 5897 5897 5897 5896 5896 5896 5896 5895 5895 5895 5894 5893 5892 5891 5890 5890 5889 5888 5887 5886 5885 5883 5882 5881 5880 5879 5877 5876 5875 5874 5872
5889 5890 5891 5891 5892 5892 5893 5893 5893 5893 5894 5894 5894 5894 5893 5893 5893 5892 5892 5891 5891 5891 5890 5889 5887 5886 5885 5884 5884 5883 5881 5880 5879 5877 5876 5875 5874 5872 5871 5870 5868 5867 5865
5888 5888 5889 5889 5890 5890 5890 5890 5890 5890 5891 5891 5890 5890 5890 5889 5889 5888 5888 5887 5887 5886 5885 5883 5882 5881 5880 5879 5878 5876 5875 5874 5872 5871 5869 5868 5867 5865 5864 5862 5861 5859 5858
5886 5886 5886 5887 5887 5887 5887 5887 5887 5887 5887 5887 5887 5886 5886 5885 5884 5884 5883 5882 5881 5880 5879 5877 5876 5875 5874 5872 5871 5869 5868 5867 5865 5864 5862 5860 5859 5857 5856 5854 5853 5851 5849
5884 5884 5884 5884 5884 5884 5884 5884 5883 5883 5883 5883 5882 5882 5882 5881 5880 5879 5878 5877 5876 5875 5874 5872 5870 5869 5867 5866 5864 5863 5861 5860 5858 5856 5854 5853 5851 5849 5847 5845 5844 5842 5840
5882 5882 5882 5882 5881 5881 5881 5880 5880 5879 5879 5878 5878 5877 5877 5876 5875 5874 5873 5872 5871 5869 5868 5866 5864 5862 5861 5859 5857 5855 5854 5852 5850 5848 5846 5844 5843 5840 5838 5836 5834 5832 5830
5880 5879 5879 5878 5878 5878 5877 5876 5876 5875 5875 5874 5873 5873 5872 5871 5870 5869 5867 5866 5865 5863 5861 5860 5858 5856 5854 5852 5850 5848 5846 5844 5842 5840 5837 5835 5834 5831 5829 5826 5824 5822 5820
5876 5876 5875 5875 5874 5874 5873 5872 5872 5871 5870 5870 5869 5868 5867 5866 5865 5863 5862 5860 5859 5857 5855 5853 5851 5849 5846 5844 5842 5840 5838 5836 5834 5832 5830 5827 5825 5822 5820 5817 5814 5812 5810
5872 5872 5871 5871 5870 5869 5869 5868 5867 5866 5866 5865 5864 5863 5862 5861 5859 5858 5856 5854 5852 5850 5848 5846 5844 5841 5839 5837 5835 5832 5830 5828 5826 5823 5821 5819 5816 5813 5810 5807 5804 5802 5799
5869 5868 5867 5867 5866 5865 5864 5863 5862 5861 5860 5859 5858 5857 5856 5854 5853 5851 5849 5847 5845 5843 5841 5839 5836 5834 5831 5829 5826 5824 5822 5819 5817 5815 5811 5809 5806 5804 5801 5797 5794 5791 5788
5865 5864 5864 5863 5862 5861 5860 5858 5857 5856 5855 5853 5852 5851 5849 5848 5846 5844 5842 5840 5838 5835 5833 5831 5828 5826 5823 5820 5818 5815 5812 5810 5808 5805 5802 5799 5796 5793 5790 5787 5784 5781 5778
5862 5861 5860 5859 5858 5856 5855 5853 5852 5850 5849 5847 5846 5844 5843 5841 5839 5837 5835 5833 5830 5828 5825 5823 5820 5817 5815 5812 5809 5806 5803 5800 5797 5795 5791 5789 5786 5783 5780 5776 5773 5769 5766
5858 5857 5855 5854 5853 5852 5850 5848 5847 5845 5843 5841 5840 5838 5836 5834 5832 5830 5828 5825 5822 5820 5817 5814 5811 5808 5805 5803 5800 5797 5793 5790 5788 5785 5781 5778 5775 5772 5768 5765 5762 5758 5755
5854 5852 5850 5849 5848 5846 5844 5843 5841 5839 5837 5835 5833 5831 5829 5826 5824 5821 5819 5817 5814 5811 5808 5805 5802 5799 5796 5793 5790 5786 5783 5780 5777 5774 5771 5768 5764 5761 5758 5755 5751 5747 5743
Wind_Speed
3 3 2 2 2 2 2 2 2 3 3 3 3 3 3 3 3 2 2 2 2 2 1 1 1 0 1 1 1 2 2 2 2 2 2 3 3 4 4 4 4 4 5
3 3 3 3 3 3 2 2 3 3 2 3 3 3 2 2 3 2 2 1 1 1 1 1 1 1 1 2 2 3 3 4 4 4 4 4 4 5 5 5 5 5 5
4 4 4 3 3 3 3 2 2 2 2 2 2 2 2 2 3 2 2 1 1 0 0 1 1 2 2 2 3 3 4 4 4 5 5 5 5 5 6 6 6 6 7
5 5 4 4 4 4 3 2 2 2 2 2 1 1 1 1 1 1 1 1 0 0 1 1 1 2 2 3 3 4 4 4 5 5 6 6 6 6 6 7 7 8 8
5 5 4 5 4 4 4 3 3 2 2 2 1 0 0 0 1 1 0 0 1 1 1 1 2 2 2 3 4 4 5 5 6 6 6 6 6 6 7 8 9 10 10
6 6 5 5 5 5 4 4 3 3 2 2 2 2 2 2 2 1 1 1 2 2 2 3 3 3 4 4 5 5 5 6 6 7 7 8 8 9 9 9 10 10 11
7 7 6 5 5 5 5 5 4 4 4 4 3 3 3 3 3 3 3 3 3 3 3 4 4 5 6 6 6 6 7 7 7 8 8 9 9 10 10 11 11 12 12
7 7 6 6 6 6 6 6 5 5 5 5 5 5 5 5 5 5 5 6 5 5 5 5 6 6 6 7 7 8 8 9 10 10 10 11 11 12 12 12 13 13 14
7 7 8 7 7 7 7 7 6 6 7 7 7 7 6 6 7 6 7 7 8 8 7 7 7 8 8 8 9 10 10 11 11 12 12 12 13 13 14 15 15 15 16
7 8 9 9 9 8 8 8 8 8 8 8 9 9 8 8 8 8 8 8 9 10 10 9 10 10 10 11 11 12 12 13 13 14 14 15 15 16 16 16 17 17 17
7 8 8 9 10 10 9 9 9 10 10 10 10 10 10 10 10 10 11 11 11 12 12 12 13 13 13 14 14 15 15 15 16 16 17 17 17 18 18 19 19 19 19
7 7 7 9 10 10 10 10 11 10 11 12 12 12 12 13 13 13 13 13 13 14 14 15 16 16 16 17 17 17 17 18 19 19 19 19 19 20 20 20 21 21 22
8 8 9 10 10 10 11 12 12 12 12 12 12 13 13 14 14 15 15 16 16 16 17 18 19 19 20 20 20 20 20 21 22 22 22 22 22 22 23 23 23 24 25
9 9 10 10 11 11 11 12 11 12 12 13 14 14 15 15 16 17 17 18 18 19 20 21 21 22 22 22 23 23 23 23 24 25 25 26 26 26 26 26 27 27 28
8 9 10 11 11 12 12 12 12 13 14 14 14 15 16 17 18 18 19 19 20 21 22 23 23 24 24 24 25 25 25 25 26 27 27 28 28 28 28 29 29 29 30
8 8 10 11 12 12 12 14 15 15 15 15 16 16 17 18 18 19 20 20 21 22 22 23 25 25 25 26 25 25 26 27 28 28 29 29 30 31 31 31 31 31 31
9 9 10 11 12 13 14 16 16 15 16 17 17 17 18 18 19 19 19 20 21 22 23 25 26 26 26 26 26 28 29 29 29 30 31 31 31 32 33 34 34 33 33
11 11 11 12 13 13 14 15 15 15 17 18 18 19 19 19 20 20 20 21 22 23 24 25 27 27 27 28 28 29 30 30 31 31 32 33 34 34 34 35 34 34 35
13 13 13 13 14 15 16 16 16 16 18 18 19 19 20 20 21 21 22 23 24 25 26 26 27 28 28 28 29 30 30 30 31 31 32 32 33 34 35 35 35 35 36
15 15 14 14 15 16 17 18 18 18 19 19 20 20 20 21 22 22 23 24 26 27 27 28 28 29 29 30 30 30 30 31 31 31 32 33 33 33 33 35 35 36 37
16 16 16 17 17 17 18 19 20 20 20 21 21 21 22 23 23 24 25 26 27 28 28 29 30 30 30 31 31 32 32 32 32 33 34 34 34 35 35 36 37 37 38
15 16 16 17 18 18 19 20 20 21 21 21 22 23 24 25 25 26 27 28 29 30 30 30 30 31 31 32 32 32 33 33 34 34 35 35 36 36 36 35 36 37 38
15 16 17 18 19 19 20 20 20 21 22 23 24 25 25 26 26 27 28 29 29 30 30 30 31 31 32 32 33 34 35 36 36 36 37 37 37 37 36 37 38 39 39
17 17 19 19 20 21 21 21 22 23 23 24 24 25 26 27 28 28 28 29 30 30 31 32 33 33 33 33 34 35 36 36 37 37 38 38 38 38 38 39 39 39 40
20 20 21 21 21 22 22 23 24 24 25 25 26 27 28 28 29 30 30 31 32 32 33 33 34 34 34 35 35 35 36 37 37 37 37 37 38 38 38 38 39 39 40
22 22 23 23 23 24 25 25 25 26 26 27 27 28 29 30 31 32 32 33 33 34 34 34 34 35 35 36 36 37 37 37 37 37 37 37 38 38 38 38 38 39 39
Wind_Direction
219 218 208 192 198 190 182 157 142 134 117 109 106 109 102 103 99 115 125 126 126 129 134 144 149 182 251 274 269 261 261 259 279 296 307 300 286 273 272 271 272 273 271
220 209 202 202 207 200 182 160 151 143 128 119 106 112 101 95 100 106 120 140 146 141 173 216 251 266 282 285 281 276 274 266 273 274 284 290 286 282 279 272 274 277 278
216 208 211 209 214 204 193 180 165 157 139 134 120 99 91 93 116 117 114 126 132 152 274 280 282 277 281 289 292 288 286 280 279 278 280 282 285 284 281 279 275 277 278
218 217 213 215 219 213 210 206 190 190 176 155 148 100 86 87 105 114 98 118 159 127 359 330 304 289 291 287 292 292 290 290 289 289 289 291 294 290 286 279 278 277 279
222 222 214 220 224 222 222 227 216 203 194 200 201 194 5 5 35 80 77 262 246 274 298 303 300 293 297 290 292 295 296 294 293 292 294 293 294 292 289 287 283 281 280
228 228 228 226 225 225 226 235 228 227 226 230 236 250 275 283 286 297 309 301 292 289 292 295 302 296 293 297 297 296 294 292 294 296 296 291 290 290 288 288 286 284 283
229 231 234 231 230 229 235 240 237 240 244 249 252 254 263 273 272 280 290 294 295 295 297 291 299 295 293 298 300 296 295 295 295 297 297 295 292 292 290 290 288 288 286
226 226 236 240 241 242 242 243 241 245 251 255 262 262 265 265 268 275 284 288 291 293 293 293 293 295 301 300 301 298 296 295 294 294 293 293 291 290 289 289 289 288 286
229 237 243 244 248 250 249 249 250 253 254 257 264 266 263 265 267 275 280 282 287 289 288 288 289 292 295 295 296 297 296 294 293 292 292 293 294 292 290 290 288 287 287
243 246 247 246 247 249 250 251 256 257 257 260 265 267 265 270 273 275 280 283 287 288 287 286 286 288 290 292 293 293 294 293 292 291 291 291 291 291 289 289 288 288 287
246 251 249 246 246 248 250 251 256 259 259 261 264 265 266 270 274 274 276 281 284 287 285 287 286 284 285 288 290 291 292 291 292 291 292 293 292 290 289 289 288 287 286
251 254 248 249 249 250 251 255 259 264 262 263 265 267 269 273 275 275 276 278 282 284 284 286 288 286 284 287 288 289 289 290 291 291 291 290 290 290 288 288 288 287 286
256 254 250 251 255 261 261 259 262 267 266 267 269 272 275 277 278 278 281 281 282 284 285 285 287 287 286 285 287 287 288 288 289 289 289 288 287 288 287 288 286 285 285
266 262 255 254 259 266 268 266 266 269 269 270 271 274 277 280 280 280 283 284 283 286 286 286 285 286 287 287 287 287 288 288 287 287 287 286 285 285 286 286 285 285 284
274 266 260 260 264 268 269 269 268 273 273 275 275 277 278 279 283 283 283 285 285 288 286 284 284 285 287 287 288 286 286 288 287 287 287 287 287 286 285 286 286 285 284
276 273 270 269 270 271 273 273 273 273 273 275 277 280 280 281 282 284 286 286 287 290 291 288 286 287 288 288 288 286 286 287 286 287 288 289 288 286 286 287 285 285 285
286 283 280 277 277 277 279 280 278 278 277 276 278 281 283 287 288 287 287 287 290 291 291 292 291 290 290 290 288 287 287 288 287 286 286 288 289 288 286 285 285 284 283
289 289 286 285 286 286 285 282 279 280 280 278 279 282 283 286 289 288 289 290 290 291 292 293 293 292 292 292 291 289 289 290 290 289 288 288 288 288 287 286 285 283 283
291 289 289 289 288 289 289 287 282 282 283 283 282 283 285 287 289 289 289 290 291 293 293 292 293 293 293 293 292 291 291 292 291 291 290 290 291 291 290 289 286 285 286
292 289 289 290 290 292 290 287 284 283 284 285 285 286 287 288 289 292 292 292 292 293 293 293 293 293 293 292 290 291 292 292 292 291 290 291 292 292 292 291 289 288 287
295 293 291 292 293 293 294 290 285 286 285 284 285 285 286 287 289 290 291 292 293 294 294 294 293 293 293 293 291 290 291 291 291 291 291 291 290 290 289 289 289 289 288
299 298 295 293 294 295 294 292 289 288 286 284 285 286 287 288 289 291 292 293 294 295 295 294 294 294 293 293 292 291 290 290 290 290 290 289 290 290 289 289 289 290 290
300 299 299 296 294 295 295 294 293 291 289 288 288 289 289 291 292 292 293 296 296 296 295 294 296 296 295 295 294 292 291 290 290 289 289 290 290 291 291 291 291 291 291
305 302 300 299 297 297 297 296 296 295 293 292 292 293 293 293 293 295 296 296 296 295 295 295 296 295 295 295 294 293 291 291 290 290 290 290 291 291 291 290 291 291 291
304 303 301 299 299 299 299 298 297 297 296 295 296 296 296 295 295 296 296 297 297 297 296 295 294 294 293 293 294 294 292 290 290 290 290 290 291 292 291 291 291 291 291
302 302 302 300 300 298 296 295 297 298 296 297 298 298 298 299 298 298 297 296 296 296 296 295 295 295 294 294 294 295 293 292 291 291 291 291 292 293 292 292 293 293 294